GFSNE_500_rhum_000.txt.gz
RH
33 27 22 17 14 14 10 8 7 10 19 34 17 21 50 96 99 99 99 100 98 84 88 83 82 65 35 20 16 22 24 23 20 19 19 19 22 24
18 13 12 13 14 16 22 22 16 13 20 41 32 20 29 89 99 100 100 100 100 100 94 93 92 86 74 41 39 32 31 29 26 26 26 34 36 40
12 9 7 6 7 11 25 34 32 21 16 37 46 27 29 99 100 100 100 100 100 100 100 98 94 78 73 56 42 43 50 53 35 32 37 50 61 62
6 6 5 5 6 6 15 31 37 38 25 22 55 49 35 100 100 100 100 100 100 100 100 99 100 100 79 66 52 73 89 75 48 43 62 73 76 73
10 11 13 16 18 16 12 16 34 38 45 26 38 64 52 51 100 100 100 100 92 100 100 100 98 98 100 92 80 99 100 93 64 86 99 99 94 98
25 30 34 37 37 34 24 18 17 33 37 46 38 64 61 50 84 100 100 100 100 100 100 100 99 100 100 98 100 97 100 100 100 99 100 99 96 98
52 60 65 68 71 75 51 33 25 18 32 37 42 54 76 48 49 95 100 100 100 100 100 100 100 98 100 100 100 100 100 95 100 100 100 100 99 96
85 92 99 95 87 93 86 60 21 26 17 32 35 44 62 75 48 68 96 100 100 100 100 100 100 100 100 100 100 100 100 100 100 100 100 100 100 100
60 76 85 86 90 94 95 95 90 28 17 17 26 31 49 75 69 53 81 98 99 100 100 100 100 100 100 100 100 100 100 100 100 100 100 100 100 99
69 91 99 100 100 100 100 92 72 47 17 16 13 22 28 54 86 61 54 100 98 100 100 99 100 100 100 100 100 100 100 100 100 100 100 100 100 100
77 98 100 100 100 100 90 78 75 21 14 13 21 10 17 23 71 80 57 55 97 94 100 96 100 100 100 100 100 100 100 100 100 100 100 100 100 100
100 100 100 97 100 100 88 94 84 29 16 21 35 27 10 17 29 83 71 54 69 98 95 98 100 100 100 100 98 100 100 100 100 100 100 97 99 98
100 100 96 100 100 100 100 100 82 42 18 19 43 45 16 10 16 46 77 61 50 76 97 100 100 100 100 100 100 100 100 97 100 100 100 95 98 99
100 100 100 100 100 92 94 100 93 73 57 14 20 29 21 12 13 15 53 62 55 47 72 100 100 97 100 100 100 100 100 100 100 99 100 98 100 99
96 100 100 95 90 87 100 90 100 99 80 28 13 16 13 16 14 13 19 50 51 50 44 74 98 100 92 79 94 100 100 100 100 100 88 59 72 86
99 81 90 94 77 65 42 41 79 92 100 34 24 28 26 21 17 14 16 21 41 47 46 42 76 100 98 94 56 82 99 100 100 100 52 30 93 100
84 98 98 100 90 66 71 85 88 77 92 55 18 11 19 20 19 16 13 16 21 34 39 42 40 77 99 99 82 76 99 92 87 72 47 57 85 100
92 84 76 86 100 100 98 100 100 71 70 100 52 12 8 11 13 16 14 13 18 22 27 32 37 41 50 96 99 96 92 83 65 53 51 86 100 100
100 100 95 70 79 100 100 100 93 100 80 75 55 79 27 16 19 20 18 14 13 20 21 23 30 33 38 41 52 78 87 84 67 97 100 100 100 100
100 100 100 100 100 100 99 100 100 100 100 100 100 100 97 67 18 15 16 13 12 25 18 20 22 26 28 34 58 45 32 23 21 45 100 100 97 93
100 93 100 100 100 99 99 99 99 100 100 99 95 90 88 98 93 100 88 24 34 15 11 17 18 24 41 59 55 54 61 70 99 100 96 80 96 93
98 97 96 97 98 100 100 99 100 100 100 99 100 100 78 89 96 99 87 87 100 44 16 18 27 78 100 100 100 100 100 100 97 60 49 80 100 99
100 100 100 100 100 100 98 96 100 100 100 100 100 67 68 94 100 100 100 100 100 64 78 100 100 100 100 100 100 100 99 68 60 93 100 100 100 100

GFSNE_500_rhum_003.txt.gz
RH
75 67 59 48 38 32 28 23 20 22 21 19 18 17 16 16 16 14 13 22 68 99 99 99 82 73 63 64 69 74 38 14 13 14 15 14 13 13
51 44 37 29 23 17 14 13 11 9 10 12 10 10 10 10 11 11 11 12 31 100 100 98 98 75 66 64 69 75 73 41 17 17 17 16 18 23
22 16 12 10 10 9 7 7 6 5 5 5 5 4 4 5 5 9 54 26 21 94 100 99 99 85 73 67 74 71 81 76 56 27 18 17 21 26
17 14 10 9 8 7 7 7 7 6 5 5 5 5 6 4 3 12 24 34 52 61 100 100 100 98 82 84 70 78 78 84 83 44 51 32 34 34
10 9 8 8 9 12 16 16 22 46 34 6 3 4 7 12 6 13 30 36 100 100 100 100 100 100 97 100 92 94 80 90 77 83 80 60 64 64
7 10 12 15 24 30 32 34 36 34 35 25 9 4 8 25 22 11 31 43 65 96 100 100 100 100 100 100 99 99 97 96 93 87 87 75 70 70
14 29 47 57 58 54 58 64 58 56 54 45 35 15 12 32 39 24 23 47 43 64 100 100 100 100 99 99 100 100 100 98 96 94 91 82 76 75
57 69 68 74 80 89 85 76 79 78 73 93 78 32 22 20 42 42 30 67 48 68 100 100 100 100 100 100 100 100 100 100 100 100 100 100 98 95
67 79 86 76 62 68 95 86 73 74 82 90 78 65 24 22 28 43 43 76 65 46 95 100 100 100 100 100 100 100 100 100 100 99 100 100 99 100
77 86 77 76 77 82 93 90 88 84 83 96 86 97 89 30 22 34 45 60 92 63 64 99 100 100 100 100 100 100 100 100 100 100 100 100 100 100
80 95 98 93 100 100 99 94 87 85 92 90 94 72 77 100 33 22 37 47 84 84 62 92 100 100 100 100 100 100 100 100 100 100 100 100 100 100
100 100 100 100 99 100 100 100 100 98 100 100 98 54 30 76 84 18 25 40 59 100 76 78 100 100 100 100 100 100 100 100 100 100 100 100 100 100
100 100 99 93 87 100 100 98 99 100 100 100 93 46 27 19 76 42 14 26 37 84 99 68 93 100 100 100 100 100 100 100 100 100 100 100 100 100
96 100 100 100 100 100 99 89 81 90 100 100 100 63 45 21 37 48 23 14 25 43 99 83 70 93 100 100 100 100 100 100 100 100 100 100 100 100
97 100 99 100 100 93 90 100 100 100 100 100 100 95 47 22 66 99 57 14 15 23 75 93 58 57 99 100 100 100 100 100 100 100 100 100 100 100
84 100 100 100 99 91 39 39 44 57 81 99 100 100 86 26 49 98 66 20 10 14 30 92 67 49 76 100 100 100 100 100 100 100 100 100 100 100
98 100 99 95 100 67 90 75 98 64 41 91 100 100 69 27 38 81 87 36 11 9 12 65 73 49 48 91 100 100 100 100 100 100 100 100 100 100
100 100 94 81 88 94 82 84 59 82 55 96 92 52 23 44 39 29 30 25 18 8 9 26 62 73 47 51 92 99 100 100 100 98 100 100 100 100
100 95 88 84 84 77 82 75 79 95 96 82 58 11 8 39 54 60 51 37 25 13 9 8 38 62 59 45 54 94 98 100 100 100 100 100 100 100
100 98 94 84 70 60 50 72 100 100 100 100 95 64 14 0 9 15 30 33 28 20 13 9 18 28 66 58 46 54 89 98 100 100 99 99 98 100
100 100 100 100 95 91 66 64 94 100 98 100 100 100 71 13 8 29 32 35 39 26 18 11 13 20 48 55 52 48 52 86 96 100 100 100 100 99
100 94 94 99 100 85 78 70 87 95 97 100 100 93 100 98 28 24 37 43 38 27 19 15 15 17 22 37 52 46 48 52 60 71 77 84 92 97
100 100 100 96 97 99 100 95 97 100 100 100 76 85 96 100 100 100 68 42 77 94 88 43 17 16 16 20 28 34 37 40 44 53 91 100 100 88

GFSNE_500_rhum_006.txt.gz
RH
100 97 97 100 100 99 94 88 82 68 66 68 62 56 52 48 43 35 30 27 24 17 14 13 19 89 100 100 96 95 53 46 47 44 20 11 11 11
79 76 71 67 63 59 56 53 51 50 52 51 46 37 33 33 34 31 28 24 22 18 14 12 13 35 97 100 100 85 64 54 52 56 44 27 16 11
59 55 48 42 36 27 17 16 14 13 12 19 19 21 18 18 19 22 21 19 17 16 14 11 12 13 44 98 100 97 71 61 57 60 59 58 49 17
31 11 4 3 4 4 4 4 5 6 6 5 6 7 9 8 9 12 13 14 14 13 12 11 10 12 13 69 100 100 100 72 64 63 64 68 64 40
2 4 6 8 8 8 8 7 7 7 7 6 5 5 5 5 5 5 7 7 8 8 8 8 8 9 11 40 100 96 100 100 91 88 93 84 68 62
9 9 7 6 6 7 8 8 10 9 8 9 7 6 6 5 5 5 4 4 4 5 5 6 6 9 11 28 100 100 99 100 100 99 97 100 97 94
7 10 12 17 19 26 26 34 38 36 33 30 26 17 12 12 7 7 6 5 4 4 7 5 6 73 29 12 89 100 97 100 100 100 99 100 100 99
26 47 63 59 70 76 69 64 58 54 55 66 68 56 50 54 58 33 16 5 4 5 10 13 23 100 96 29 59 100 100 100 100 100 100 100 100 97
58 71 81 91 90 79 91 94 76 46 45 68 63 56 65 69 77 99 58 23 6 5 16 17 15 81 100 73 100 97 100 100 100 100 100 100 100 100
61 73 75 79 84 83 80 71 57 53 47 58 74 67 60 77 99 100 98 50 26 14 31 39 28 25 62 100 100 100 100 99 100 100 100 100 100 100
70 64 73 74 82 88 87 82 90 94 86 76 66 81 77 83 99 100 89 100 38 33 28 47 48 27 36 53 100 100 100 100 100 100 100 100 100 100
65 68 86 94 100 98 87 89 77 93 100 100 98 94 100 100 100 100 98 91 92 28 45 50 51 50 52 58 100 100 100 100 99 100 100 100 100 100
86 93 99 100 100 100 100 92 76 87 93 96 94 96 100 100 100 100 86 78 95 53 36 44 48 78 69 48 83 100 100 100 100 100 100 100 100 100
100 99 92 100 100 93 78 69 84 92 95 100 100 100 100 100 100 100 92 100 85 100 34 33 44 68 93 57 57 100 100 100 100 100 100 100 100 100
97 85 98 100 90 86 82 90 99 100 91 69 79 96 100 100 100 100 91 39 33 100 78 66 30 46 100 94 76 100 100 100 100 100 100 100 100 100
80 92 100 100 96 100 100 90 67 65 98 54 43 68 100 100 100 100 79 35 42 100 92 78 39 34 86 100 66 94 100 100 100 100 100 100 100 100
97 99 100 100 98 95 100 100 80 57 80 58 60 54 100 100 100 98 81 33 81 100 98 56 25 25 46 100 76 97 100 100 100 100 100 100 100 100
93 85 84 86 94 82 76 97 53 50 68 86 66 100 100 100 100 75 47 55 100 100 100 53 20 18 20 96 99 100 95 100 100 100 100 100 100 100
92 92 87 77 49 74 63 45 56 93 100 99 61 87 100 71 58 42 36 71 100 100 100 44 19 15 14 48 100 100 95 98 100 100 100 100 100 100
100 99 90 82 64 58 63 54 71 83 82 99 100 40 11 18 47 47 44 40 55 100 94 37 25 25 12 19 93 100 100 99 100 100 100 100 100 100
98 100 92 76 73 56 64 71 91 89 69 84 98 98 34 4 2 14 48 56 47 38 36 31 29 27 18 11 71 96 97 86 79 100 100 100 100 100
96 99 94 84 76 79 85 84 76 56 58 72 100 100 99 65 16 14 21 22 42 38 36 37 38 63 44 12 28 92 100 90 76 72 100 100 100 100
98 100 100 94 86 82 75 91 77 64 66 88 98 100 100 100 100 60 36 47 46 48 61 69 57 74 64 14 18 45 94 96 78 64 59 67 98 100

GFSNE_500_rhum_009.txt.gz
RH
96 94 98 100 98 100 100 96 87 84 96 100 100 100 100 90 75 63 52 44 45 53 32 23 19 15 17 26 88 98 98 97 100 95 78 64 46 19
96 94 91 86 88 95 96 99 98 84 72 93 99 100 100 100 95 80 68 57 50 46 42 35 26 18 16 16 35 92 98 98 99 98 89 78 60 36
98 87 78 80 74 69 66 65 66 73 68 68 81 91 98 100 100 99 87 76 66 60 55 47 36 24 16 14 15 75 98 98 98 99 99 85 73 49
75 69 55 40 28 16 11 10 12 18 32 43 52 58 65 71 83 95 98 89 78 68 61 55 45 33 23 16 13 15 98 98 99 100 100 95 88 76
8 5 5 6 6 7 6 5 4 4 3 9 19 24 33 37 33 33 43 72 74 60 51 49 46 38 29 22 14 11 18 52 89 98 95 100 97 95
12 12 11 10 9 8 8 8 8 8 7 6 3 3 5 8 12 12 12 15 26 42 43 33 35 35 30 24 19 18 26 18 22 92 100 100 100 97
8 8 8 9 11 10 13 13 11 9 7 6 6 6 6 6 4 4 5 6 8 8 13 22 23 26 26 24 19 15 12 17 17 66 88 97 100 100
13 14 17 37 49 53 57 54 50 49 44 29 17 9 8 8 7 6 6 5 5 5 5 7 10 12 16 19 18 16 14 13 17 78 100 97 97 100
35 40 53 54 58 64 75 70 69 79 80 83 52 41 38 42 41 30 19 10 7 7 7 5 5 6 7 9 13 14 13 13 50 34 100 66 77 100
40 50 64 70 67 67 70 73 73 77 76 69 63 54 45 50 61 50 47 47 41 17 10 7 7 5 5 5 7 9 22 11 58 71 100 100 100 100
46 58 53 44 50 58 41 49 52 71 100 99 84 54 58 45 60 75 59 43 44 47 49 39 15 7 6 5 5 6 9 17 13 29 100 100 100 95
92 86 84 80 82 94 96 85 81 100 100 99 93 77 76 91 70 56 88 71 56 53 65 70 72 28 10 6 6 6 7 8 12 17 100 100 100 100
83 90 87 86 70 48 75 94 94 98 93 96 94 84 82 78 96 100 95 92 71 64 67 87 95 66 45 15 7 7 10 11 12 31 66 100 100 100
90 90 95 86 74 77 95 85 83 74 77 91 100 100 100 100 100 100 100 100 83 82 100 100 89 100 79 64 29 14 27 16 23 99 100 93 100 100
99 99 100 100 100 100 94 88 91 98 93 72 79 88 80 96 99 97 94 94 96 97 100 94 96 100 99 100 57 46 46 40 27 100 100 98 100 100
100 100 99 99 100 100 100 100 100 100 99 100 99 72 59 46 42 74 100 100 100 100 100 93 100 100 99 68 82 54 67 59 30 75 100 100 100 100
98 87 88 82 68 99 100 100 100 100 56 46 48 58 78 77 46 54 100 100 100 100 100 100 82 100 100 50 89 58 77 78 73 42 92 100 100 100
86 78 65 64 58 63 95 100 99 100 97 100 82 69 58 98 100 100 100 100 100 100 100 39 57 100 96 73 64 67 81 100 95 78 98 100 100 100
98 78 60 49 50 51 53 59 69 57 58 70 86 43 85 95 98 99 100 100 100 100 86 32 96 100 100 100 85 66 76 100 92 73 100 100 100 100
100 82 68 54 42 52 55 41 48 60 76 90 89 24 16 34 67 80 84 82 68 44 39 61 99 100 100 84 100 64 68 100 96 96 100 100 100 100
100 87 77 68 65 46 53 45 60 78 91 90 93 99 31 3 7 34 35 33 32 45 94 100 100 100 59 40 75 100 75 100 98 100 100 100 100 100
100 97 83 78 78 76 52 55 68 82 98 99 85 84 98 64 14 12 14 43 50 39 86 100 100 84 51 34 40 100 84 87 99 98 100 100 100 100
100 100 100 93 84 82 79 80 87 84 85 84 95 100 92 88 82 41 42 27 42 44 43 49 54 47 74 85 77 100 73 56 99 100 100 100 100 100

GFSNE_500_rhum_015.txt.gz
RH
100 100 100 100 87 86 88 86 83 62 65 75 71 79 84 76 69 65 81 96 98 100 63 50 100 100 100 94 99 100 96 96 98 98 98 98 98 98
100 100 92 92 99 100 96 95 94 87 61 72 77 77 83 76 73 80 71 98 99 97 100 47 59 96 100 96 93 71 88 99 98 99 98 98 97 94
100 100 100 100 98 100 100 100 99 97 80 70 71 77 86 95 92 96 88 83 100 100 100 94 42 54 99 100 88 66 66 52 99 99 99 98 98 99
100 100 100 100 100 100 100 95 92 91 82 66 68 66 73 85 91 96 100 90 96 100 100 99 90 40 53 87 100 56 37 59 59 97 99 100 99 98
98 98 91 71 49 24 16 15 14 15 18 27 40 41 46 53 67 72 91 100 96 100 100 100 100 91 44 77 98 83 35 26 52 93 98 100 99 98
60 27 19 13 11 10 11 12 12 11 11 9 8 9 16 22 23 28 49 79 100 100 100 100 100 100 97 53 58 61 56 35 27 27 76 98 100 98
18 14 13 13 13 12 10 9 9 9 9 8 9 10 9 8 9 12 16 19 52 85 98 100 100 96 97 100 71 56 58 56 35 24 22 36 96 99
14 13 12 10 10 15 25 36 46 44 40 31 14 10 8 8 8 7 8 9 13 21 53 88 98 100 97 96 98 98 66 66 64 41 27 22 25 76
13 11 10 21 31 35 37 39 43 50 60 56 59 67 68 53 21 9 8 7 7 7 10 29 59 84 97 100 96 93 98 79 64 74 59 30 25 24
10 14 30 36 41 44 53 56 58 59 59 61 63 68 67 50 46 41 21 9 7 7 6 9 10 30 61 86 99 97 86 95 98 73 72 64 42 32
26 50 52 67 86 89 88 89 92 100 98 58 40 44 53 70 63 50 55 49 28 13 8 6 6 10 10 26 74 95 100 97 90 98 84 59 48 44
70 72 81 82 86 89 94 94 98 100 100 99 99 91 75 72 69 74 80 64 39 35 42 13 7 6 8 8 8 36 74 97 98 87 81 91 67 45
89 94 92 84 89 80 83 95 100 100 96 93 83 74 66 100 100 98 94 69 72 35 48 46 24 10 6 6 6 6 10 39 71 83 85 76 81 75
96 88 77 80 81 90 83 89 100 100 100 100 99 98 92 95 100 100 95 82 84 94 64 43 49 53 34 15 10 7 6 6 11 33 59 70 72 66
84 77 79 87 61 49 66 88 96 100 100 100 100 100 100 100 96 100 100 100 93 96 91 79 39 45 47 42 38 35 19 9 6 5 7 22 48 57
95 94 93 57 32 25 31 44 73 87 83 90 99 99 100 100 100 94 98 100 95 84 80 84 93 70 42 42 52 43 46 45 27 17 10 6 6 18
100 100 76 39 26 28 34 37 35 40 47 52 58 61 61 70 83 99 100 93 92 92 98 90 75 76 84 73 44 66 59 41 37 36 29 23 16 6
100 99 70 43 31 36 46 52 60 69 73 80 79 78 62 11 34 36 42 93 97 78 64 63 67 78 82 84 87 75 75 67 56 52 41 29 29 22
100 100 84 54 34 42 55 63 55 57 60 64 78 87 64 8 38 62 69 65 66 97 96 78 63 54 67 100 100 100 100 100 73 66 59 41 30 19
100 100 100 91 48 41 46 60 62 61 59 60 58 56 72 24 9 63 92 93 95 100 91 92 76 66 47 97 100 100 97 90 80 70 48 32 24 60
100 100 100 100 92 64 54 71 77 74 69 66 61 57 56 54 28 19 46 62 90 100 100 100 100 72 86 100 95 98 98 95 84 68 40 31 30 98
100 100 100 100 100 89 84 82 78 74 71 72 71 52 49 44 36 35 20 18 43 43 87 100 100 100 99 100 100 100 100 95 70 52 42 38 58 100
100 100 100 100 100 100 94 86 83 81 76 74 78 74 60 58 60 53 28 20 29 26 30 44 85 100 100 100 100 100 100 100 70 54 42 42 69 100

GFSNE_500_rhum_021.txt.gz
RH
18 36 39 100 63 100 94 100 100 66 81 67 81 89 60 70 79 62 50 50 52 49 46 40 34 23 25 30 35 48 63 59 50 98 86 96 95 92
42 74 100 100 100 100 100 96 100 98 90 100 100 100 100 96 90 79 68 57 49 46 46 43 40 33 24 27 35 39 51 64 65 64 91 99 99 97
100 100 100 100 100 100 100 100 100 100 99 100 94 83 65 62 65 64 60 57 56 51 50 53 56 49 38 28 33 44 51 52 65 69 92 99 98 98
100 100 100 100 100 100 95 91 85 79 73 68 71 69 67 70 65 62 64 70 72 71 70 63 60 58 62 54 36 39 57 61 58 69 72 91 100 88
100 100 100 100 100 98 97 93 90 86 83 75 69 67 62 60 60 59 59 64 70 75 81 79 74 69 60 60 57 48 49 61 63 63 84 70 91 98
93 98 94 96 99 99 95 87 77 65 55 44 33 21 14 10 10 11 13 21 25 31 47 71 83 80 72 62 55 53 49 50 56 62 76 87 67 90
100 100 98 93 85 76 62 42 26 15 11 10 11 13 13 14 14 13 12 11 11 11 12 15 31 76 84 72 63 55 50 44 40 47 62 84 90 75
100 100 92 70 53 40 20 11 11 14 15 13 10 11 12 14 21 24 20 15 13 11 11 11 11 14 55 76 69 67 61 52 45 44 50 76 99 93
86 76 62 39 20 15 15 15 13 10 17 24 29 31 34 37 39 40 42 46 49 36 14 10 10 11 11 34 66 68 70 68 56 52 52 70 100 99
54 41 27 17 16 15 14 11 21 38 55 63 69 80 83 86 86 75 50 35 53 64 63 26 11 10 10 10 30 59 67 74 81 67 68 81 88 100
25 23 17 17 15 12 16 43 63 77 83 92 93 88 76 87 88 86 91 48 36 59 68 59 60 16 10 10 10 22 53 65 81 91 80 92 99 98
17 17 16 14 13 40 61 75 89 85 83 84 88 82 78 86 96 86 84 84 59 43 68 58 69 68 17 10 9 10 20 45 65 81 96 100 100 100
12 14 14 21 62 69 82 56 31 41 66 71 90 99 94 83 89 94 88 77 57 66 98 57 66 66 58 20 10 9 9 14 33 54 79 100 99 97
16 24 61 95 81 90 57 35 36 39 38 54 80 89 94 93 89 84 84 81 75 83 80 67 69 81 77 83 46 12 9 8 12 20 40 74 100 99
92 100 100 100 100 64 36 47 50 51 57 60 61 54 56 58 68 79 96 100 100 100 100 99 99 96 90 86 97 61 20 10 8 9 14 26 57 94
100 100 100 100 86 40 60 68 57 52 49 47 43 49 57 81 95 96 97 92 90 100 100 100 100 100 100 100 100 83 48 31 12 8 8 9 15 31
100 100 100 100 79 56 68 65 62 54 50 37 29 20 12 14 18 14 13 17 32 80 100 100 100 100 100 100 100 100 76 49 42 16 8 7 8 10
100 100 100 100 81 63 63 62 65 60 54 40 32 30 25 13 9 14 51 54 49 41 49 100 100 100 100 100 100 100 100 90 53 52 26 13 8 7
100 100 100 100 96 89 83 76 69 60 56 48 43 39 39 36 18 11 18 54 61 57 54 41 93 100 100 100 100 100 100 100 92 62 66 62 35 14
100 100 100 100 100 100 97 86 74 64 62 58 52 48 47 44 42 30 16 19 26 64 80 81 75 92 100 100 100 100 100 100 100 100 88 68 66 51
100 100 100 100 100 100 100 98 84 76 70 62 56 55 58 58 50 50 49 23 19 22 68 93 97 86 93 100 100 97 91 86 94 96 94 94 85 74
100 100 100 100 100 100 100 100 100 93 81 70 67 64 60 52 58 57 56 61 47 21 26 79 91 98 89 87 100 98 87 81 67 60 83 90 94 94
100 100 100 100 100 100 100 100 100 97 90 85 75 69 70 51 18 23 45 62 68 75 36 26 49 88 95 95 88 95 95 87 75 52 56 87 89 94

GFSNE_500_rhum_027.txt.gz
RH
11 12 13 14 19 27 31 31 47 70 69 62 68 83 76 94 39 30 40 28 34 59 63 63 60 58 48 54 67 71 68 65 67 71 70 66 57 48
24 29 42 87 100 100 100 100 100 100 97 98 100 84 70 60 60 100 72 48 57 81 91 94 70 66 64 59 49 60 68 69 64 60 62 63 63 56
100 100 100 100 100 100 100 100 95 96 100 100 100 100 100 100 100 83 80 97 100 100 100 100 100 96 72 60 62 54 49 51 68 66 56 52 53 57
99 100 100 100 100 100 100 100 100 100 96 89 100 100 100 100 100 97 99 96 77 87 100 100 100 100 93 78 60 57 50 41 44 62 68 55 48 44
92 96 99 94 90 88 91 88 87 91 94 88 87 81 83 87 92 91 96 98 92 73 66 68 76 92 78 80 74 59 45 37 37 41 50 60 56 46
78 86 92 99 100 100 95 76 80 89 92 86 79 76 67 62 60 66 72 71 67 66 65 64 59 52 46 41 41 42 41 37 31 26 30 32 45 55
22 30 59 83 96 98 99 100 100 98 100 100 98 94 88 83 81 77 68 63 58 56 51 44 35 25 21 18 17 21 30 33 27 23 21 21 24 39
18 18 20 23 36 67 84 88 95 100 100 93 80 68 59 53 48 50 55 59 58 59 58 55 56 54 52 50 47 40 38 32 25 19 15 13 11 15
15 15 15 15 16 21 29 56 67 66 62 57 53 45 23 14 13 12 13 12 12 12 12 12 13 18 24 33 39 44 43 43 39 35 32 26 19 11
19 18 16 14 13 13 17 21 28 36 36 32 20 15 14 14 19 22 25 24 22 23 24 16 17 11 9 9 10 11 18 27 32 40 40 39 37 31
28 26 24 18 14 12 11 15 18 20 18 16 16 35 72 82 78 79 90 87 77 76 73 61 48 35 27 19 16 13 12 10 12 16 21 42 43 45
44 31 28 22 15 12 11 13 16 17 16 42 86 50 63 64 60 69 74 81 100 100 100 86 78 71 64 50 34 24 24 23 15 10 11 14 39 48
45 31 29 24 17 12 12 15 20 41 83 58 45 42 42 42 46 58 73 81 88 95 100 98 94 90 80 79 78 61 27 32 40 37 13 9 11 35
41 33 32 25 20 26 46 80 96 91 44 50 54 51 47 36 34 43 48 59 73 93 100 100 100 100 99 94 80 78 56 34 45 51 37 14 9 12
51 50 94 100 100 100 100 100 82 43 56 60 39 24 17 13 11 10 10 10 14 40 93 98 99 100 91 84 75 68 80 48 41 57 59 30 12 10
100 100 100 100 100 100 100 83 58 66 64 37 33 30 25 21 19 14 12 10 12 23 27 22 50 100 96 96 86 78 62 69 49 61 70 59 20 11
100 100 100 100 100 100 88 87 79 72 43 43 42 36 30 28 25 21 16 13 11 21 36 44 30 32 100 100 92 100 87 66 79 81 84 87 36 14
100 100 100 100 100 100 100 99 84 66 45 51 51 47 40 35 31 29 25 21 14 14 34 48 52 42 72 100 100 100 100 100 100 99 99 100 89 27
100 100 100 100 100 100 100 100 95 84 67 63 59 54 47 41 35 29 24 25 26 16 20 49 58 61 59 100 100 100 100 100 100 100 100 100 100 86
100 100 100 100 100 100 100 100 100 100 86 76 68 62 56 47 42 35 22 17 21 28 19 21 60 77 94 91 100 100 100 100 100 100 100 100 100 98
100 100 100 100 100 100 100 100 100 100 99 92 84 76 67 58 46 41 30 19 16 18 28 25 28 76 98 100 99 100 100 100 100 100 100 100 100 99
100 100 100 100 100 100 100 100 100 100 100 100 99 87 76 64 53 45 39 25 19 19 20 29 31 33 77 87 100 97 99 97 98 100 100 100 100 100
100 100 100 100 100 100 100 100 100 100 100 100 100 97 84 71 61 53 48 36 24 24 24 23 26 37 30 75 82 88 93 96 99 100 100 100 100 100